Surface/Precipitation History
12/06/2017 18:40  to  12/7/2017 18:40
Change End Date:
Date/Time
(MDT)
Sf
Temp Chem Water Layer Surface Precipitation
Sfc Pvt Sub Frz Factor Pct Dpth DpthThk IcePct Cond Salin FI Type Intens Accum Rate
12/07/2017 18:35 Ice Warning 24.8F - - 32F 95 1% - - 96% 2 mhos 294 - None None - -
12/07/2017 18:25 Ice Warning 24.8F - - 32F 95 1% - - 96% 3 mhos 324 - None None - -
12/07/2017 18:15 Ice Warning 25.0F - - 32F 95 1% - - 95% 3 mhos 332 - None None - -
12/07/2017 18:15 Ice Warning 25.0F - - 32F 95 1% - - 95% 3 mhos 332 - None None - -
12/07/2017 18:05 Ice Warning 25.0F - - 32F 95 1% - - 96% 3 mhos 328 - None None - -
12/07/2017 17:55 Ice Warning 25.0F - - 32F 95 1% - - 96% 3 mhos 320 - None None - -
12/07/2017 17:45 Ice Warning 25.2F - - 32F 95 1% - - 95% 3 mhos 327 - None None - -
12/07/2017 17:45 Ice Warning 25.2F - - 32F 95 1% - - 95% 3 mhos 327 - None None - -
12/07/2017 17:35 Ice Warning 25.2F - - 32F 95 1% - - 95% 3 mhos 318 - None None - -
12/07/2017 17:25 Ice Warning 25.2F - - 32F 95 1% - - 95% 3 mhos 344 - None None - -
12/07/2017 17:15 Ice Warning 25.3F - - 32F 95 1% - - 95% 3 mhos 348 - None None - -
12/07/2017 17:15 Ice Warning 25.3F - - 32F 95 1% - - 95% 3 mhos 348 - None None - -
12/07/2017 17:05 Ice Warning 25.5F - - 32F 95 1% - - 95% 3 mhos 348 - None None - -
12/07/2017 16:55 Ice Warning 25.7F - - 32F 95 1% - - 95% 3 mhos 337 - None None - -
12/07/2017 16:45 Ice Warning 25.9F - - 32F 95 1% - - 94% 3 mhos 356 - None None - -
Date/Time
(MDT)
Sf
Temp Chem Water Layer Surface Precipitation
Sfc Pvt Sub Frz Factor Pct Dpth DpthThk IcePct Cond Salin FI Type Intens Accum Rate
12/07/2017 16:45 Ice Warning 25.9F - - 32F 95 1% - - 95% 3 mhos 337 - None None - -
12/07/2017 16:35 Ice Warning 26.1F - - 32F 95 1% - - 94% 3 mhos 355 - None None - -
12/07/2017 16:25 Ice Warning 26.2F - - 32F 95 1% - - 94% 3 mhos 365 - None None - -
12/07/2017 16:15 Ice Warning 26.2F - - 32F 95 1% - - 93% 3 mhos 381 - None None - -
12/07/2017 16:15 Ice Warning 26.2F - - 32F 95 1% - - 94% 3 mhos 375 - None None - -
12/07/2017 16:05 Ice Warning 26.4F - - 32F 95 1% - - 93% 3 mhos 374 - None None - -
12/07/2017 15:55 Ice Warning 26.6F - - 32F 95 2% - - 93% 3 mhos 404 - None None - -
12/07/2017 15:45 Ice Warning 26.8F - - 32F 95 2% - - 92% 4 mhos 417 - None None - -
12/07/2017 15:44 Ice Warning 26.8F - - 31F 95 2% - - 92% 4 mhos 432 - None None - -
12/07/2017 15:34 Ice Warning 26.8F - - 31F 95 2% - - 92% 4 mhos 448 - None None - -
12/07/2017 15:24 Ice Warning 27.0F - - 31F 95 2% - - 92% 4 mhos 431 - None None - -
12/07/2017 15:15 Ice Warning 27.0F - - 31F 95 2% - - 91% 4 mhos 439 - None None - -
12/07/2017 15:14 Ice Warning 27.0F - - 31F 95 2% - - 91% 4 mhos 447 - None None - -
12/07/2017 15:04 Ice Warning 27.0F - - 31F 95 2% - - 91% 4 mhos 455 - None None - -
12/07/2017 14:54 Ice Warning 27.1F - - 31F 95 2% - - 91% 4 mhos 454 - None None - -
Date/Time
(MDT)
Sf
Temp Chem Water Layer Surface Precipitation
Sfc Pvt Sub Frz Factor Pct Dpth DpthThk IcePct Cond Salin FI Type Intens Accum Rate
12/07/2017 14:45 Ice Warning 27.1F - - 31F 95 2% - - 91% 4 mhos 446 - None None - -
12/07/2017 14:44 Ice Warning 27.1F - - 31F 95 2% - - 91% 4 mhos 438 - None None - -
12/07/2017 14:34 Ice Warning 27.1F - - 31F 95 2% - - 91% 4 mhos 463 - None None - -
12/07/2017 14:24 Ice Warning 27.3F - - 31F 95 2% - - 90% 4 mhos 462 - None None - -
12/07/2017 14:17 Ice Warning 27.3F - - 31F 95 2% - - 89% 4 mhos 488 - None None - -
12/07/2017 14:14 Ice Warning 27.3F - - 31F 95 2% - - 90% 4 mhos 469 - None None - -
12/07/2017 14:04 Ice Warning 27.5F - - 31F 95 2% - - 89% 4 mhos 478 - None None - -
12/07/2017 13:54 Ice Warning 27.5F - - 31F 95 2% - - 90% 4 mhos 468 - None None - -
12/07/2017 13:45 Ice Warning 27.3F - - 31F 95 2% - - 90% 4 mhos 469 - None None - -
12/07/2017 13:44 Ice Warning 27.3F - - 31F 95 2% - - 90% 4 mhos 479 - None None - -
12/07/2017 13:34 Ice Warning 27.3F - - 31F 95 2% - - 91% 4 mhos 437 - None None - -
12/07/2017 13:24 Ice Warning 27.1F - - 31F 95 2% - - 91% 4 mhos 446 - None None - -
12/07/2017 13:15 Ice Warning 27.0F - - 31F 95 2% - - 92% 4 mhos 423 - None None - -
12/07/2017 13:14 Ice Warning 27.0F - - 31F 95 2% - - 92% 4 mhos 431 - None None - -
12/07/2017 13:04 Ice Warning 26.8F - - 32F 95 2% - - 92% 3 mhos 403 - None None - -
Date/Time
(MDT)
Sf
Temp Chem Water Layer Surface Precipitation
Sfc Pvt Sub Frz Factor Pct Dpth DpthThk IcePct Cond Salin FI Type Intens Accum Rate
12/07/2017 12:54 Ice Warning 26.8F - - 32F 95 2% - - 92% 4 mhos 410 - None None - -
12/07/2017 12:43 Ice Warning 26.6F - - 32F 95 1% - - 93% 3 mhos 385 - None None - -
12/07/2017 12:33 Ice Warning 26.4F - - 32F 95 1% - - 93% 3 mhos 380 - None None - -
12/07/2017 12:23 Ice Warning 26.4F - - 32F 95 1% - - 93% 3 mhos 386 - None None - -
12/07/2017 12:15 Ice Warning 26.2F - - 32F 95 1% - - 94% 3 mhos 359 - None None - -
12/07/2017 12:13 Ice Warning 26.2F - - 32F 95 1% - - 94% 3 mhos 349 - None None - -
12/07/2017 12:03 Ice Warning 26.1F - - 32F 95 1% - - 94% 3 mhos 350 - None None - -
12/07/2017 11:53 Ice Warning 25.7F - - 32F 95 1% - - 95% 3 mhos 342 - None None - -
12/07/2017 11:45 Ice Warning 25.5F - - 32F 95 1% - - 95% 3 mhos 325 - None None - -
12/07/2017 11:43 Ice Warning 25.5F - - 32F 95 1% - - 95% 3 mhos 325 - None None - -
12/07/2017 11:33 Ice Warning 25.2F - - 32F 95 1% - - 96% 3 mhos 310 - None None - -
12/07/2017 11:23 Ice Warning 25.2F - - 32F 95 1% - - 96% 3 mhos 300 - None None - -
12/07/2017 11:15 Ice Warning 24.8F - - 32F 95 1% - - 96% 3 mhos 301 - None None - -
12/07/2017 11:13 Ice Warning 24.6F - - 32F 95 1% - - 96% 2 mhos 288 - None None - -
12/07/2017 11:03 Ice Warning 24.4F - - 32F 95 1% - - 97% 2 mhos 264 - None None - -
Date/Time
(MDT)
Sf
Temp Chem Water Layer Surface Precipitation
Sfc Pvt Sub Frz Factor Pct Dpth DpthThk IcePct Cond Salin FI Type Intens Accum Rate
12/07/2017 10:53 Ice Warning 24.1F - - 32F 95 1% - - 97% 2 mhos 260 - None None - -
12/07/2017 10:48 Ice Warning 24.1F - - 32F 95 1% - - 97% 2 mhos 248 - None None - -
12/07/2017 10:43 Ice Warning 23.9F - - 32F 95 1% - - 97% 2 mhos 251 - None None - -
12/07/2017 10:33 Ice Warning 23.5F - - 32F 95 1% - - 97% 2 mhos 230 - None None - -
12/07/2017 10:23 Ice Warning 23.2F - - 32F 95 1% - - 98% 2 mhos 223 - None None - -
12/07/2017 10:15 Ice Warning 23.0F - - 32F 95 1% - - 98% 2 mhos 219 - None None - -
12/07/2017 10:13 Ice Warning 22.8F - - 32F 95 1% - - 98% 2 mhos 214 - None None - -
12/07/2017 10:02 Ice Warning 22.6F - - 32F 95 1% - - 98% 2 mhos 217 - None None - -
12/07/2017 09:52 Ice Warning 22.3F - - 32F 95 1% - - 98% 2 mhos 203 - None None - -
12/07/2017 09:45 Ice Warning 21.9F - - 32F 95 1% - - 98% 2 mhos 198 - None None - -
12/07/2017 09:42 Ice Warning 21.9F - - 32F 95 1% - - 98% 2 mhos 201 - None None - -
12/07/2017 09:32 Ice Warning 21.7F - - 32F 95 1% - - 98% 2 mhos 189 - None None - -
12/07/2017 09:22 Ice Warning 21.6F - - 32F 95 1% - - 98% 2 mhos 195 - None None - -
12/07/2017 09:12 Ice Warning 21.4F - - 32F 95 1% - - 98% 2 mhos 192 - None None - -
12/07/2017 09:02 Ice Warning 21.2F - - 32F 95 1% - - 98% 1 mhos 185 - None None - -
Date/Time
(MDT)
Sf
Temp Chem Water Layer Surface Precipitation
Sfc Pvt Sub Frz Factor Pct Dpth DpthThk IcePct Cond Salin FI Type Intens Accum Rate
12/07/2017 08:52 Ice Warning 21.2F - - 32F 95 1% - - 98% 2 mhos 194 - None None - -
12/07/2017 08:45 Ice Warning 21.0F - - 32F 95 1% - - 98% 1 mhos 184 - None None - -
12/07/2017 08:42 Ice Warning 21.0F - - 32F 95 1% - - 98% 1 mhos 185 - None None - -
12/07/2017 08:32 Ice Warning 20.8F - - 32F 95 1% - - 98% 1 mhos 178 - None None - -
12/07/2017 08:22 Ice Warning 20.8F - - 32F 95 1% - - 98% 1 mhos 179 - None None - -
12/07/2017 08:15 Ice Warning 20.8F - - 32F 95 1% - - 98% 2 mhos 189 - None None - -
12/07/2017 08:12 Ice Warning 20.8F - - 32F 95 1% - - 98% 1 mhos 183 - None None - -
12/07/2017 08:02 Ice Warning 20.8F - - 32F 95 1% - - 98% 1 mhos 184 - None None - -
12/07/2017 07:52 Ice Warning 20.8F - - 32F 95 1% - - 98% 1 mhos 183 - None None - -
12/07/2017 07:47 Ice Warning 20.8F - - 32F 95 1% - - 98% 2 mhos 189 - None None - -
12/07/2017 07:42 Ice Warning 20.8F - - 32F 95 1% - - 98% 2 mhos 198 - None None - -
12/07/2017 07:32 Ice Warning 20.8F - - 32F 95 1% - - 98% 2 mhos 191 - None None - -
12/07/2017 07:21 Ice Warning 20.8F - - 32F 95 1% - - 98% 1 mhos 186 - None None - -
12/07/2017 07:17 Ice Warning 20.8F - - 32F 95 1% - - 98% 1 mhos 182 - None None - -
12/07/2017 07:11 Ice Warning 20.8F - - 32F 95 1% - - 98% 1 mhos 183 - None None - -
Date/Time
(MDT)
Sf
Temp Chem Water Layer Surface Precipitation
Sfc Pvt Sub Frz Factor Pct Dpth DpthThk IcePct Cond Salin FI Type Intens Accum Rate
12/07/2017 07:01 Ice Warning 20.8F - - 32F 95 1% - - 98% 1 mhos 186 - None None - -
12/07/2017 06:51 Ice Warning 20.8F - - 32F 95 1% - - 98% 1 mhos 178 - None None - -
12/07/2017 06:41 Ice Warning 20.8F - - 32F 95 1% - - 98% 2 mhos 189 - None None - -
12/07/2017 06:31 Ice Warning 20.8F - - 32F 95 1% - - 98% 2 mhos 193 - None None - -
12/07/2017 06:21 Ice Warning 20.8F - - 32F 95 1% - - 98% 1 mhos 179 - None None - -
12/07/2017 06:11 Ice Warning 20.8F - - 32F 95 1% - - 98% 1 mhos 179 - None None - -
12/07/2017 06:01 Ice Warning 21.0F - - 32F 20 1% - - 98% 2 mhos 189 - None None - -
12/07/2017 05:51 Ice Warning 21.0F - - 32F 95 1% - - 98% 1 mhos 186 - None None - -
12/07/2017 05:47 Ice Warning 21.0F - - 32F 95 1% - - 98% 2 mhos 189 - None None - -
12/07/2017 05:41 Ice Warning 21.0F - - 32F 95 1% - - 98% 1 mhos 180 - None None - -
12/07/2017 05:31 Ice Warning 21.0F - - 32F 95 1% - - 98% 1 mhos 188 - None None - -
12/07/2017 05:21 Ice Warning 21.0F - - 32F 95 1% - - 98% 2 mhos 189 - None None - -
12/07/2017 05:11 Ice Warning 21.0F - - 32F 95 1% - - 98% 1 mhos 179 - None None - -
12/07/2017 05:01 Ice Warning 21.0F - - 32F 95 1% - - 98% 1 mhos 185 - None None - -
12/07/2017 04:51 Ice Warning 21.0F - - 32F 95 1% - - 98% 1 mhos 188 - None None - -
Date/Time
(MDT)
Sf
Temp Chem Water Layer Surface Precipitation
Sfc Pvt Sub Frz Factor Pct Dpth DpthThk IcePct Cond Salin FI Type Intens Accum Rate
12/07/2017 04:45 Ice Warning 21.0F - - 32F 95 1% - - 98% 1 mhos 170 - None None - -
12/07/2017 04:40 Ice Warning 21.0F - - 32F 95 1% - - 98% 2 mhos 217 - None None - -
12/07/2017 04:30 Ice Warning 21.0F - - 32F 40 1% - - 98% 2 mhos 209 - None None - -
12/07/2017 04:20 Ice Warning 21.0F - - 32F 95 1% - - 98% 2 mhos 190 - None None - -
12/07/2017 04:17 Ice Warning 21.0F - - 32F 25 1% - - 98% 2 mhos 193 - None None - -
12/07/2017 04:10 Ice Warning 21.2F - - 32F 95 1% - - 98% 2 mhos 189 - None None - -
12/07/2017 04:00 Ice Warning 21.2F - - 32F 95 1% - - 98% 2 mhos 199 - None None - -
12/07/2017 03:50 Ice Warning 21.2F - - 32F 95 1% - - 98% 2 mhos 197 - None None - -
12/07/2017 03:45 Ice Warning 21.2F - - 32F 15 1% - - 98% 2 mhos 201 - None None - -
12/07/2017 03:40 Ice Warning 21.2F - - 32F 20 1% - - 98% 2 mhos 210 - None None - -
12/07/2017 03:30 Ice Warning 21.2F - - 32F 95 1% - - 98% 2 mhos 193 - None None - -
12/07/2017 03:20 Ice Warning 21.2F - - 32F 95 1% - - 98% 2 mhos 196 - None None - -
12/07/2017 03:10 Ice Warning 21.2F - - 32F 95 1% - - 98% 2 mhos 193 - None None - -
12/07/2017 03:00 Ice Warning 21.2F - - 32F 95 1% - - 98% 2 mhos 194 - None None - -
12/07/2017 02:50 Ice Warning 21.2F - - 32F 95 1% - - 98% 2 mhos 197 - None None - -
Date/Time
(MDT)
Sf
Temp Chem Water Layer Surface Precipitation
Sfc Pvt Sub Frz Factor Pct Dpth DpthThk IcePct Cond Salin FI Type Intens Accum Rate
12/07/2017 02:48 Ice Warning 21.2F - - 32F 95 1% - - 98% 2 mhos 199 - None None - -
12/07/2017 02:40 Ice Warning 21.4F - - 32F 95 1% - - 98% 2 mhos 197 - None None - -
12/07/2017 02:30 Ice Warning 21.4F - - 32F 95 1% - - 98% 2 mhos 195 - None None - -
12/07/2017 02:20 Ice Warning 21.4F - - 32F 95 1% - - 98% 2 mhos 188 - None None - -
12/07/2017 02:17 Error 21.4F - - - - - - - - 2 mhos 201 - None None - -
12/07/2017 02:10 Ice Warning 21.6F - - 32F 35 1% - - 98% 2 mhos 212 - None None - -
12/07/2017 02:00 Error 21.6F - - - - - - - - 2 mhos 228 - None None - -
12/07/2017 01:50 Ice Warning 21.6F - - 32F 95 1% - - 98% 2 mhos 188 - None None - -
12/07/2017 01:45 Ice Warning 21.6F - - 32F 65 1% - - 98% 2 mhos 196 - None None - -
12/07/2017 01:39 Ice Warning 21.6F - - 32F 95 1% - - 98% 2 mhos 195 - None None - -
12/07/2017 01:29 Ice Warning 21.7F - - 32F 95 1% - - 98% 2 mhos 203 - None None - -
12/07/2017 01:19 Ice Warning 21.7F - - 32F 95 1% - - 98% 2 mhos 217 - None None - -
12/07/2017 01:15 Ice Warning 21.7F - - 32F 95 1% - - 98% 2 mhos 217 - None None - -
12/07/2017 01:09 Ice Warning 21.6F - - 32F 95 1% - - 98% 2 mhos 217 - None None - -
12/07/2017 00:59 Ice Warning 21.7F - - 32F 95 1% - - 98% 2 mhos 211 - None None - -
Date/Time
(MDT)
Sf
Temp Chem Water Layer Surface Precipitation
Sfc Pvt Sub Frz Factor Pct Dpth DpthThk IcePct Cond Salin FI Type Intens Accum Rate
12/07/2017 00:49 Ice Warning 21.7F - - 32F 95 1% - - 98% 2 mhos 223 - None None - -
12/07/2017 00:45 Ice Warning 21.7F - - 32F 95 1% - - 98% 2 mhos 204 - None None - -
12/07/2017 00:39 Ice Warning 21.7F - - 32F 95 1% - - 98% 2 mhos 214 - None None - -
12/07/2017 00:29 Ice Warning 21.7F - - 32F 95 1% - - 98% 2 mhos 206 - None None - -
12/07/2017 00:19 Ice Warning 21.9F - - 32F 95 1% - - 98% 2 mhos 210 - None None - -
12/07/2017 00:15 Ice Warning 21.9F - - 32F 95 1% - - 98% 2 mhos 204 - None None - -
12/07/2017 00:09 Ice Warning 21.9F - - 32F 95 1% - - 98% 2 mhos 205 - None None - -
12/06/2017 23:59 Ice Warning 22.1F - - 32F 95 1% - - 98% 2 mhos 208 - None None - -
12/06/2017 23:49 Ice Warning 22.1F - - 32F 95 1% - - 98% 2 mhos 217 - None None - -
12/06/2017 23:45 Ice Warning 22.1F - - 32F 95 1% - - 98% 2 mhos 213 - None None - -
12/06/2017 23:39 Ice Warning 22.3F - - 32F 95 1% - - 98% 2 mhos 213 - None None - -
12/06/2017 23:29 Ice Warning 22.3F - - 32F 95 1% - - 98% 2 mhos 215 - None None - -
12/06/2017 23:19 Ice Warning 22.5F - - 32F 95 1% - - 98% 2 mhos 204 - None None - -
12/06/2017 23:09 Ice Warning 22.5F - - 32F 95 1% - - 98% 2 mhos 242 - None None - -
12/06/2017 22:59 Ice Warning 22.5F - - 32F 95 1% - - 98% 2 mhos 218 - None None - -
Date/Time
(MDT)
Sf
Temp Chem Water Layer Surface Precipitation
Sfc Pvt Sub Frz Factor Pct Dpth DpthThk IcePct Cond Salin FI Type Intens Accum Rate
12/06/2017 22:48 Ice Warning 22.6F - - 32F 95 1% - - 98% 2 mhos 225 - None None - -
12/06/2017 22:48 Ice Warning 22.6F - - 32F 95 1% - - 98% 2 mhos 221 - None None - -
12/06/2017 22:38 Ice Warning 22.6F - - 32F 95 1% - - 98% 2 mhos 231 - None None - -
12/06/2017 22:28 Ice Warning 22.6F - - 32F 95 1% - - 98% 2 mhos 223 - None None - -
12/06/2017 22:18 Ice Warning 22.5F - - 32F 95 1% - - 98% 2 mhos 221 - None None - -
12/06/2017 22:17 Ice Warning 22.6F - - 32F 95 1% - - 98% 2 mhos 221 - None None - -
12/06/2017 22:08 Ice Warning 22.6F - - 32F 95 1% - - 98% 2 mhos 225 - None None - -
12/06/2017 21:58 Ice Warning 22.5F - - 32F 95 1% - - 97% 2 mhos 249 - None None - -
12/06/2017 21:48 Ice Warning 22.5F - - 32F 95 1% - - 98% 2 mhos 220 - None None - -
12/06/2017 21:48 Ice Warning 22.5F - - 32F 95 1% - - 98% 2 mhos 220 - None None - -
12/06/2017 21:38 Ice Warning 22.5F - - 32F 95 1% - - 98% 2 mhos 223 - None None - -
12/06/2017 21:28 Ice Warning 22.5F - - 32F 95 1% - - 98% 2 mhos 233 - None None - -
12/06/2017 21:18 Ice Warning 22.5F - - 32F 95 1% - - 98% 2 mhos 238 - None None - -
12/06/2017 21:08 Ice Warning 22.6F - - 32F 95 1% - - 98% 2 mhos 239 - None None - -
12/06/2017 20:58 Ice Warning 22.6F - - 32F 95 1% - - 98% 2 mhos 223 - None None - -
Date/Time
(MDT)
Sf
Temp Chem Water Layer Surface Precipitation
Sfc Pvt Sub Frz Factor Pct Dpth DpthThk IcePct Cond Salin FI Type Intens Accum Rate
12/06/2017 20:48 Ice Warning 22.8F - - 32F 95 1% - - 97% 2 mhos 243 - None None - -
12/06/2017 20:45 Ice Warning 22.8F - - 32F 95 1% - - 97% 2 mhos 240 - None None - -
12/06/2017 20:38 Ice Warning 22.8F - - 32F 95 1% - - 97% 2 mhos 247 - None None - -
12/06/2017 20:28 Ice Warning 23.0F - - 32F 95 1% - - 97% 2 mhos 244 - None None - -
12/06/2017 20:17 Ice Warning 23.0F - - 32F 95 1% - - 97% 2 mhos 247 - None None - -
12/06/2017 20:17 Ice Warning 23.0F - - 32F 95 1% - - 97% 2 mhos 242 - None None - -
12/06/2017 20:07 Ice Warning 23.2F - - 32F 95 1% - - 97% 2 mhos 261 - None None - -
12/06/2017 19:57 Ice Warning 23.2F - - 32F 95 1% - - 97% 2 mhos 253 - None None - -
12/06/2017 19:47 Ice Warning 23.5F - - 32F 95 1% - - 97% 2 mhos 255 - None None - -
12/06/2017 19:45 Ice Warning 23.4F - - 32F 95 1% - - 97% 2 mhos 250 - None None - -
12/06/2017 19:37 Ice Warning 23.5F - - 32F 95 1% - - 97% 2 mhos 274 - None None - -
12/06/2017 19:27 Ice Warning 23.9F - - 32F 95 1% - - 97% 2 mhos 276 - None None - -
12/06/2017 19:17 Ice Warning 24.1F - - 32F 95 1% - - 97% 2 mhos 277 - None None - -
12/06/2017 19:15 Ice Warning 24.3F - - 32F 95 1% - - 97% 2 mhos 280 - None None - -
12/06/2017 19:07 Ice Warning 24.6F - - 32F 95 1% - - 96% 2 mhos 282 - None None - -
Date/Time
(MDT)
Sf
Temp Chem Water Layer Surface Precipitation
Sfc Pvt Sub Frz Factor Pct Dpth DpthThk IcePct Cond Salin FI Type Intens Accum Rate
12/06/2017 18:57 Ice Warning 25.2F - - 32F 95 1% - - 96% 3 mhos 307 - None None - -
12/06/2017 18:47 Ice Warning 25.3F - - 32F 95 1% - - 96% 3 mhos 302 - None None - -
12/06/2017 18:45 Ice Warning 25.5F - - 32F 95 1% - - 95% 3 mhos 321 - None None - -
Change End Date:

Copyright © 1998-2015 Vaisala, Inc.
All Rights Reserved
Send comments about the data to:
SCAN Web ® is a registered trademark of Vaisala, Inc.
SCAN Web Version 6.0